Theta_e
292 292 292 293 293 293 293 292 292 292 291 291 291 290 290 290 290 291 291 291 292 292 293 293 294 295 295 295 295 295 295 296 296 297 297 297 298 298 298 299 299 299 300 301 303 306 309 311 312 313 315 315 316 317 317 317 319 323 327 329 331 331 332 334 333 330 329 331 332 332 332 334 335 335 337 339 339 340 341 340 340 339 338 337 334
292 292 292 293 293 293 292 292 291 291 291 290 290 290 290 290 290 291 291 291 292 293 293 294 294 294 295 295 295 295 295 295 295 296 296 296 296 297 296 296 297 298 299 300 303 306 307 309 311 312 314 315 316 318 318 318 317 319 322 325 328 330 330 331 333 332 331 332 333 333 333 334 335 336 336 337 338 339 340 340 340 339 338 337 335
292 292 292 292 292 292 291 291 291 291 290 290 289 289 289 289 290 292 292 292 293 293 294 294 294 294 294 294 294 295 294 294 295 295 295 295 296 296 296 296 297 297 298 300 303 305 306 308 309 311 312 314 315 317 318 319 319 318 318 320 324 328 329 329 330 332 333 333 334 335 334 333 335 336 336 336 337 337 339 340 340 340 339 337 336
291 291 291 291 291 291 291 290 291 290 289 289 289 289 289 289 290 291 291 292 292 292 294 294 293 293 293 294 294 294 293 294 294 294 294 295 295 296 296 297 297 298 298 299 302 304 305 306 307 308 309 311 312 314 316 318 319 319 319 319 321 323 327 329 328 328 330 332 334 334 334 334 334 335 336 336 336 335 337 339 341 341 340 338 336
291 291 291 290 290 291 290 290 291 290 289 289 289 289 288 288 289 290 290 290 291 292 293 292 292 292 293 293 293 293 293 293 293 293 293 294 295 295 296 297 297 298 299 299 301 302 304 305 306 307 308 309 310 312 314 316 317 319 320 320 320 320 323 326 327 326 325 327 330 332 334 335 334 335 336 335 335 335 336 338 340 341 340 339 337
290 290 290 290 290 290 290 290 290 289 289 289 289 288 288 288 289 289 289 290 291 291 292 291 291 292 292 292 292 292 292 292 292 293 293 294 295 295 296 296 297 298 299 300 301 301 302 303 303 305 306 307 308 309 311 312 314 316 318 319 320 321 321 322 324 327 326 325 326 329 332 334 334 335 336 335 335 335 335 336 338 340 341 340 338
290 290 290 290 290 290 290 290 289 288 289 288 288 288 288 288 288 288 289 290 290 290 291 291 291 291 292 291 292 292 292 292 292 293 293 294 294 295 295 296 297 298 299 299 300 300 300 300 301 303 305 305 306 307 308 309 311 312 315 317 318 320 321 321 321 324 327 327 326 327 329 332 333 334 335 335 335 335 335 335 336 338 339 340 339
290 290 290 290 290 289 289 289 289 288 289 288 288 288 288 288 288 289 290 290 290 290 290 290 291 291 291 291 291 291 292 292 292 293 293 294 294 294 295 296 297 298 299 299 300 300 300 300 301 302 302 303 304 305 307 308 309 310 312 314 316 318 320 321 321 322 324 326 325 324 326 330 332 333 335 335 335 336 336 335 335 337 338 340 340
290 290 290 289 289 289 289 289 288 288 288 288 288 288 287 288 289 290 290 290 290 290 290 290 290 290 291 291 291 291 292 292 292 293 293 294 294 295 295 296 297 297 298 299 299 299 300 300 300 300 301 301 302 304 305 307 308 310 311 312 314 316 317 319 320 321 321 322 324 324 323 326 329 330 333 335 335 335 336 336 335 336 337 339 340
289 289 289 289 289 289 289 289 288 288 288 288 288 288 288 289 290 290 290 289 289 290 290 290 290 291 291 291 291 292 292 292 292 293 293 294 294 295 296 296 297 297 298 299 299 299 300 300 301 301 301 301 302 303 305 306 307 308 310 312 313 314 316 317 318 320 320 320 321 324 324 324 326 327 329 332 334 335 336 336 336 336 337 338 339
289 289 289 289 289 289 289 289 288 288 288 288 287 288 288 289 290 289 288 288 289 289 290 290 291 291 290 291 291 291 291 292 292 293 293 294 294 295 296 297 298 298 299 299 300 300 300 301 301 300 301 301 302 302 303 304 305 306 307 309 310 312 313 315 316 318 320 320 320 321 322 322 323 325 326 329 331 334 336 336 336 336 336 337 338
289 289 289 289 288 288 288 288 288 288 287 287 287 288 288 288 288 288 287 288 289 289 290 291 291 290 291 291 291 290 291 292 292 293 294 294 295 296 296 298 299 299 300 300 300 301 300 300 299 299 301 301 301 301 302 303 304 305 306 308 309 310 311 313 314 315 317 318 320 320 320 320 321 323 325 326 327 329 333 336 336 335 335 336 338
289 289 288 288 288 288 288 288 288 287 287 287 287 288 288 288 288 288 288 289 289 289 290 290 290 291 291 290 290 290 291 291 292 294 294 294 296 297 298 298 299 299 299 300 301 300 299 298 298 300 300 300 299 300 302 303 304 304 305 307 307 309 311 313 314 315 316 317 318 319 320 320 320 321 324 325 324 325 328 333 334 334 334 335 337
288 288 288 288 288 288 287 287 287 287 287 287 287 287 288 288 288 289 289 289 289 289 289 290 290 291 290 289 290 290 290 292 294 294 294 294 294 295 296 296 296 296 296 297 299 298 297 298 299 300 299 298 298 299 300 301 302 302 302 303 304 305 308 312 314 314 315 316 318 320 320 320 320 320 322 325 325 324 325 329 333 334 334 334 335
288 288 288 288 288 287 287 287 287 287 287 286 287 287 288 288 288 289 289 289 289 288 289 290 290 290 290 290 290 289 291 293 294 293 292 292 292 293 293 294 294 294 295 296 297 297 296 296 297 297 297 298 298 298 299 299 299 299 300 301 302 304 306 309 310 310 311 311 314 317 319 321 321 321 321 324 326 326 325 327 330 332 334 334 335
288 288 288 288 288 287 287 287 287 287 286 286 286 287 287 287 288 289 289 289 288 288 288 289 289 290 290 290 290 290 291 291 291 290 290 292 293 293 293 293 294 294 295 295 295 295 295 296 296 297 297 297 297 297 297 297 297 297 298 299 301 303 304 305 306 308 309 310 312 314 317 319 321 321 322 322 325 326 327 328 328 331 333 334 335
288 288 288 288 288 287 287 287 287 286 286 286 286 286 287 287 287 288 288 288 288 288 288 287 288 289 290 290 290 290 290 289 289 290 290 291 292 292 292 293 293 293 294 294 294 294 295 295 296 296 296 296 296 296 295 296 296 297 298 299 300 301 302 302 304 306 308 310 311 313 315 317 318 320 322 323 323 325 327 328 328 330 332 333 334
288 288 288 287 287 287 287 287 286 286 285 285 286 286 286 286 286 287 288 288 288 288 288 287 287 289 289 290 290 290 289 289 290 290 290 290 290 291 291 292 293 293 293 293 293 293 293 294 295 295 295 294 294 294 295 295 296 297 298 298 298 298 299 300 301 303 305 307 308 308 310 312 314 317 320 323 324 325 325 327 328 329 331 333 334
288 287 287 287 287 287 287 287 286 286 285 285 285 285 285 285 286 287 287 287 287 287 287 286 287 288 288 289 289 289 289 290 290 290 290 290 290 290 290 291 292 292 293 293 292 292 292 293 293 293 293 293 294 294 294 294 295 296 296 296 295 296 297 298 299 301 303 304 306 307 308 309 310 312 315 318 322 324 325 326 326 328 330 332 334
287 287 287 287 287 287 287 286 286 285 285 284 284 284 285 285 285 286 286 286 286 286 286 286 287 287 287 287 288 288 288 289 289 290 290 289 289 289 290 290 290 291 292 292 292 292 292 292 292 292 292 293 292 292 292 292 293 294 294 294 294 295 296 296 297 298 299 300 302 304 306 307 307 308 309 312 316 319 323 325 326 326 328 331 334
287 287 287 286 286 286 286 286 286 285 284 284 284 284 284 284 285 285 285 285 285 286 286 286 286 286 286 286 287 287 287 288 288 288 289 289 289 289 289 289 289 289 290 290 290 291 291 291 291 291 291 291 290 291 291 292 292 293 293 294 294 294 294 295 295 295 296 298 300 302 303 305 305 305 305 308 311 314 318 323 325 326 327 329 333
286 286 286 286 286 286 286 286 285 284 284 283 283 283 284 284 284 284 284 285 285 285 285 285 285 285 285 286 286 286 286 286 287 287 288 288 288 288 288 288 288 288 288 289 289 289 290 290 290 290 290 290 290 291 292 292 292 292 293 293 293 293 293 294 294 295 296 297 298 299 300 301 303 305 307 308 310 311 314 318 322 325 327 328 331
286 286 286 286 286 286 286 285 285 284 283 283 283 283 283 283 284 284 284 284 284 284 285 285 285 285 285 285 285 285 285 286 286 286 286 287 287 287 287 287 287 287 288 288 288 288 289 290 290 290 290 290 290 291 291 292 292 292 292 292 292 293 293 294 294 295 296 296 296 296 298 300 301 304 306 307 307 307 309 312 316 321 325 327 330
286 286 286 286 286 286 285 285 284 283 283 282 283 283 283 283 283 283 283 283 283 284 284 284 284 284 284 284 284 285 285 285 285 285 286 286 286 286 286 286 287 287 287 287 288 288 289 289 290 290 290 290 290 290 291 291 291 291 291 291 292 292 293 293 293 294 295 295 296 296 297 299 300 301 303 304 304 303 305 308 311 315 321 325 328
286 286 286 285 285 285 285 284 284 283 282 282 282 282 283 283 283 283 283 283 283 283 283 283 283 283 284 284 284 284 284 284 284 284 285 285 285 285 285 286 286 286 287 287 287 288 288 289 289 290 290 290 291 291 290 290 290 290 290 291 291 292 293 293 293 293 294 295 296 297 297 298 298 299 300 302 302 302 302 305 308 311 316 321 325
286 286 286 285 285 285 285 284 283 282 282 281 281 281 282 282 282 282 282 282 283 283 283 283 283 283 283 283 283 283 283 283 283 284 284 284 284 284 285 285 285 286 286 286 287 287 288 288 289 289 289 289 290 290 290 290 290 290 290 290 291 291 292 293 293 294 295 295 295 296 297 297 298 299 300 301 302 303 303 305 306 309 312 318 322
286 286 285 285 285 285 284 283 282 281 281 281 281 281 281 282 282 282 282 282 282 283 283 283 283 282 282 282 282 282 282 283 283 283 283 283 284 284 284 285 285 285 285 286 286 286 287 287 288 288 288 288 289 289 289 289 289 290 291 291 291 292 293 294 294 295 295 295 295 296 297 297 298 299 300 301 301 302 303 303 305 307 309 313 318
286 286 285 285 285 284 283 282 281 281 280 280 281 281 281 281 281 282 282 282 282 282 282 282 282 282 282 282 282 282 282 282 282 282 283 283 283 283 284 284 284 285 285 285 286 286 286 287 287 287 287 287 287 287 287 287 288 289 290 290 291 292 293 293 293 293 294 295 296 297 298 298 298 299 299 300 300 301 301 301 302 303 303 305 310
286 285 285 285 284 283 283 282 281 281 280 280 280 280 281 281 281 281 281 281 282 282 282 282 282 282 282 282 282 282 282 282 282 282 282 282 282 283 283 283 284 284 284 285 285 285 286 286 286 286 286 286 286 286 286 286 287 287 288 289 290 290 291 291 291 291 292 293 294 295 297 298 299 299 299 299 300 300 300 300 299 300 300 301 303
285 285 285 285 284 283 282 281 281 280 280 280 280 280 280 280 280 280 280 281 281 281 281 281 281 281 281 281 281 281 281 281 281 281 281 281 282 282 282 282 283 283 283 284 284 285 285 285 285 285 285 285 285 284 285 285 285 285 286 287 288 288 289 289 289 289 289 290 291 292 294 295 297 298 299 300 300 301 301 301 302 302 302 302 301
285 285 285 285 284 283 282 281 280 280 280 280 280 279 279 279 279 280 280 280 280 281 281 281 281 281 281 281 281 281 281 281 281 281 281 281 281 281 281 281 281 282 282 283 283 284 285 285 284 284 284 284 284 284 284 284 284 284 285 286 286 287 287 287 287 288 289 289 290 290 291 293 295 296 298 299 300 301 302 303 303 304 305 305 304
285 285 285 285 284 282 281 281 280 280 280 279 279 279 279 279 279 279 279 279 280 280 280 280 280 280 280 280 280 280 280 280 280 280 280 279 279 279 279 280 280 281 282 283 283 283 284 284 284 284 283 283 284 284 284 284 284 285 285 285 285 285 286 286 286 287 288 289 290 290 291 292 294 295 297 298 299 299 300 301 301 301 303 304 305
285 285 285 284 282 281 281 280 280 280 279 279 279 279 279 279 278 278 279 279 279 279 279 279 279 279 279 279 279 279 278 278 278 278 278 277 277 277 278 278 279 280 281 282 282 282 283 283 283 283 283 283 283 283 283 283 283 283 284 284 284 284 284 284 285 285 285 286 287 288 289 290 292 294 296 298 298 299 299 300 300 300 301 302 304
285 285 284 283 281 281 280 280 279 279 279 279 278 278 278 278 278 278 278 278 277 277 277 277 277 277 277 277 277 277 276 276 276 275 275 275 275 275 275 276 277 278 278 279 279 280 280 281 281 281 281 281 280 280 281 281 281 282 282 282 282 282 282 282 282 282 283 284 285 286 288 288 289 291 294 297 298 299 300 300 300 300 300 301 302
284 284 283 282 281 280 280 279 279 279 278 278 278 278 277 277 277 277 277 277 276 276 275 275 275 275 275 275 275 274 274 274 274 273 273 273 273 273 273 274 275 275 275 276 277 278 278 279 279 279 279 279 279 279 279 280 281 281 281 281 281 280 280 281 281 282 283 284 286 287 288 289 290 290 293 296 298 299 301 302 302 302 301 301 303
283 283 281 281 280 280 279 279 278 278 278 278 278 277 277 276 276 276 276 275 275 274 274 274 274 273 273 273 273 273 272 272 272 272 272 272 272 272 272 273 273 273 274 274 275 276 276 276 276 277 277 278 278 278 279 279 280 280 280 279 279 280 280 281 282 283 283 284 285 286 287 289 290 292 294 296 298 299 300 301 302 303 303 303 304
282 281 280 280 279 279 279 278 278 278 277 277 277 276 276 276 275 275 274 274 273 273 273 273 272 272 272 272 271 271 271 271 271 271 271 271 271 271 271 272 272 272 273 273 274 274 274 275 275 275 276 276 277 278 278 279 279 279 279 279 279 280 280 281 281 282 283 284 285 286 287 288 289 291 293 295 296 298 299 300 301 302 303 304 304
282 281 280 279 279 278 278 278 277 277 277 276 276 276 275 275 274 273 273 273 272 272 272 271 271 271 271 271 271 271 271 271 271 271 271 271 271 271 271 271 271 272 272 272 272 273 273 274 274 275 275 276 277 277 278 278 278 279 279 279 280 280 281 281 282 282 283 284 285 286 287 288 289 291 293 294 295 296 297 298 299 301 303 304 304
281 280 279 279 278 278 277 277 277 276 276 275 275 275 274 273 273 272 272 272 271 271 271 271 271 271 271 271 271 271 271 271 271 271 271 271 271 271 271 271 271 271 271 271 272 272 273 273 274 275 275 276 277 277 278 278 278 279 279 280 280 281 281 282 283 284 284 285 286 287 288 289 290 292 293 294 296 297 298 299 300 301 302 303 303
280 279 279 278 277 277 277 276 276 275 275 275 275 274 273 273 272 272 271 271 271 271 271 271 271 271 271 271 271 272 272 272 272 271 271 271 271 271 271 271 271 271 271 272 272 272 273 273 274 274 275 276 276 277 277 277 278 278 279 280 280 281 281 283 284 284 285 286 287 288 289 290 291 292 293 294 295 296 298 299 301 302 303 304 304
279 278 278 277 277 276 276 276 275 274 274 275 274 273 273 272 272 271 271 271 271 271 271 271 272 272 272 272 272 272 272 272 273 273 273 273 273 273 273 272 272 271 271 272 272 272 273 273 274 275 275 276 276 276 277 277 278 278 279 279 280 281 282 283 284 284 285 287 288 290 291 292 292 293 294 295 296 297 298 300 301 303 304 304 305
278 277 277 276 276 276 276 275 274 274 274 275 274 273 273 272 272 271 271 272 271 272 272 272 272 272 272 272 272 273 273 273 274 274 274 275 275 275 274 274 274 273 273 272 273 273 273 274 274 275 275 276 276 277 277 277 278 279 279 280 281 281 282 283 284 284 285 287 289 290 292 292 293 294 295 296 297 297 298 298 299 301 303 304 305
277 277 276 276 276 276 275 274 274 274 274 274 274 273 273 274 273 273 272 272 272 272 273 273 273 273 273 273 273 273 273 273 273 274 274 274 274 275 275 275 275 275 275 274 274 274 274 274 275 275 276 276 276 277 277 278 278 279 280 280 281 282 283 284 284 284 284 285 287 289 289 290 292 294 294 294 294 295 295 295 297 298 300 301 304
276 276 276 276 276 275 275 273 273 274 274 274 273 273 274 274 274 274 273 273 273 273 273 273 273 273 273 273 273 273 273 273 273 273 274 274 274 275 275 275 275 275 275 275 275 275 275 275 275 276 276 276 277 277 278 278 279 280 280 281 281 282 283 284 284 284 284 284 286 287 287 287 289 291 292 292 293 293 294 294 295 295 296 298 301
276 276 275 275 275 274 273 273 273 274 274 273 273 273 274 274 274 274 274 274 274 274 274 273 273 273 273 273 273 273 273 273 274 274 274 274 274 274 274 274 274 275 275 275 275 276 276 276 276 276 277 277 278 278 279 279 279 280 280 281 281 282 282 283 283 284 283 283 284 285 286 286 288 291 292 292 293 294 294 294 295 295 295 296 298
275 275 275 274 274 273 272 272 273 274 274 273 273 273 273 274 274 274 274 274 274 274 273 273 273 273 273 273 273 273 273 274 274 274 274 274 274 274 274 274 274 274 274 274 275 275 276 276 276 276 277 277 278 278 278 279 279 279 280 280 280 281 281 282 282 282 282 282 283 284 286 287 289 291 292 292 293 294 294 294 295 296 296 297 298
275 274 274 274 274 273 272 272 273 273 273 272 272 272 273 274 274 274 275 274 273 273 273 273 273 273 273 273 274 274 274 274 274 275 275 275 276 276 276 275 275 275 275 274 274 275 275 275 275 276 276 276 277 277 278 278 278 279 279 280 280 280 281 281 282 282 283 283 284 285 287 289 290 292 292 293 294 294 295 295 296 296 296 297 299
274 274 274 274 274 273 272 272 272 273 273 272 271 272 273 273 274 274 274 273 273 273 273 273 273 273 273 274 274 274 275 275 275 276 276 276 276 277 276 276 276 276 275 275 275 275 276 276 276 276 276 277 277 278 278 278 279 279 279 280 280 280 281 281 282 283 283 284 284 286 288 290 291 292 292 293 294 294 296 296 296 296 296 297 299
273 273 273 273 273 273 272 271 272 272 272 271 271 271 272 273 274 274 273 273 273 273 273 273 273 274 274 274 275 275 275 276 275 275 276 276 276 276 276 276 276 276 276 276 276 276 276 276 276 277 277 278 278 278 279 279 279 280 280 280 281 281 281 282 282 283 284 284 284 285 288 290 291 292 292 293 294 295 296 296 295 295 297 298 300
273 273 273 273 272 272 271 271 271 271 271 271 270 271 272 273 274 274 273 273 273 273 274 274 274 274 274 275 275 275 275 275 275 275 276 276 276 276 276 276 276 276 276 276 276 276 276 276 276 277 277 278 278 278 278 279 279 280 281 281 281 282 282 282 283 283 284 284 284 285 287 289 291 292 292 293 294 295 295 295 294 294 295 297 300
273 273 272 272 271 271 270 270 270 269 270 270 270 271 272 273 273 274 273 273 274 274 274 274 274 275 275 275 274 274 274 274 274 275 276 276 276 276 276 276 276 276 275 275 275 276 276 276 276 276 277 277 277 278 278 279 279 279 280 280 280 281 282 283 283 283 283 284 284 284 287 289 290 291 292 294 294 294 294 294 294 293 293 294 297
Wind_Speed
2 3 5 6 8 9 10 12 13 14 16 17 18 19 19 18 17 16 17 18 18 17 17 18 17 17 18 19 20 22 23 23 23 23 23 24 24 23 23 23 23 23 24 25 25 25 25 25 25 25 26 26 27 27 28 29 30 30 30 29 29 29 29 29 29 30 31 31 31 30 30 30 29 29 31 33 33 34 36 37 39 40 40 40 38
2 2 4 5 6 8 9 10 12 13 14 16 17 17 18 18 17 17 17 18 17 17 17 17 18 18 18 19 20 21 22 22 23 24 24 24 25 25 25 25 25 25 25 25 25 25 26 26 26 26 26 26 27 27 28 28 29 30 30 31 31 30 31 31 30 31 32 32 32 31 31 31 31 31 32 33 33 35 37 38 40 42 43 42 40
3 2 3 4 5 7 7 9 10 10 13 15 16 17 18 18 16 15 16 16 17 17 16 16 18 18 18 19 20 20 22 22 23 24 24 25 25 25 26 26 25 25 25 25 25 25 25 25 26 26 26 26 27 27 28 28 28 29 30 31 31 31 32 32 32 32 32 33 33 33 32 32 32 32 33 34 34 35 38 40 41 44 45 45 44
4 2 2 3 4 5 6 8 8 9 12 14 15 17 17 16 13 13 14 14 15 16 15 16 18 19 19 20 20 21 23 22 23 25 26 26 25 26 26 26 26 25 24 23 23 23 24 24 25 25 25 26 26 27 28 28 29 29 30 31 31 32 32 32 33 34 34 33 33 34 33 34 34 34 34 35 35 36 38 40 41 44 46 47 47
3 3 3 2 4 4 6 7 7 9 12 14 15 16 16 15 13 13 14 14 15 15 15 16 18 19 20 21 22 23 24 25 26 27 27 27 26 26 26 26 26 25 24 23 22 22 22 22 23 23 24 25 26 27 27 28 28 29 29 30 31 32 32 32 33 35 37 36 35 34 34 35 35 36 36 35 36 37 38 40 42 44 46 48 50
3 2 2 2 3 4 6 6 7 10 12 13 14 15 15 14 13 14 15 14 14 15 16 17 18 19 21 21 23 25 26 26 28 28 28 27 27 27 27 27 25 24 24 23 21 21 21 21 21 22 23 24 25 27 27 28 29 29 30 30 31 31 32 33 33 33 36 38 37 36 35 35 36 36 37 36 37 38 39 40 42 44 46 49 51
3 1 1 2 2 3 4 5 7 10 12 13 14 14 14 14 13 14 15 14 15 16 17 17 19 20 22 23 25 26 27 28 29 29 28 28 28 27 28 27 26 24 23 22 21 20 20 20 21 22 23 24 25 27 27 28 29 30 30 31 31 32 32 33 33 33 33 36 38 38 37 36 36 37 37 38 38 39 40 41 42 44 46 47 48
3 2 1 1 1 2 3 5 8 10 12 13 14 14 14 14 13 12 13 16 17 18 17 17 19 22 24 25 27 27 28 29 29 29 28 28 28 28 27 26 26 24 23 21 20 20 20 21 22 22 23 24 25 26 28 29 30 30 31 31 32 32 33 33 33 33 34 35 37 39 39 38 36 36 38 39 40 40 41 41 42 44 45 46 47
3 2 1 0 0 1 3 6 8 11 12 13 13 13 13 13 13 11 12 16 18 19 19 18 20 22 24 27 28 28 29 30 30 30 29 28 28 26 25 24 24 23 21 20 20 20 21 21 22 23 23 24 25 26 27 28 29 30 31 31 32 32 33 33 33 33 34 35 36 38 40 40 38 37 38 39 40 40 42 42 42 44 45 45 47
4 3 2 1 1 3 5 7 10 11 12 13 12 12 12 11 12 12 13 16 18 19 19 20 22 23 27 28 27 28 30 31 31 30 29 28 27 25 23 20 19 19 19 20 20 21 21 22 23 23 24 25 25 26 26 27 28 29 30 30 31 32 33 34 34 34 34 35 36 37 39 40 40 38 38 39 39 40 43 43 43 44 45 45 47
4 3 2 2 2 4 6 8 10 11 12 12 11 11 10 8 11 14 15 15 15 17 19 20 21 25 28 27 26 29 30 29 30 29 27 26 25 23 21 19 18 18 19 20 20 20 21 22 23 25 26 26 26 26 27 27 27 28 29 30 31 32 32 33 34 34 34 35 35 37 38 40 40 40 39 39 40 41 44 44 43 43 45 47 48
5 4 3 2 2 4 5 7 9 10 11 11 11 10 9 10 13 14 15 15 15 15 16 18 23 27 27 25 27 28 26 27 28 26 24 24 22 22 21 20 19 18 19 20 20 19 20 23 26 27 27 27 27 27 27 27 27 27 28 29 30 31 32 33 34 34 34 34 34 35 37 39 40 40 40 40 41 42 43 44 44 44 45 47 49
6 5 4 3 3 3 5 6 8 9 10 10 10 10 10 12 12 12 12 14 17 16 15 18 21 21 21 24 29 25 22 27 26 22 21 20 18 19 20 20 20 20 23 23 21 20 22 26 26 25 25 27 29 29 28 27 27 27 28 30 31 32 32 31 31 31 32 32 33 34 35 37 39 40 40 40 42 43 43 43 44 45 46 47 49
7 6 4 3 3 3 4 5 7 8 9 10 10 11 11 10 10 11 11 12 16 17 15 15 14 15 17 18 21 21 21 23 15 13 17 20 23 24 24 25 26 26 26 25 23 24 26 26 24 25 27 29 29 28 28 28 29 31 32 32 33 34 34 32 31 31 31 31 32 33 34 35 37 39 40 39 41 43 43 43 45 47 48 48 49
9 7 5 4 4 3 4 5 7 8 9 10 10 10 10 9 8 10 12 13 15 15 13 11 13 17 15 9 8 11 15 12 8 15 25 27 27 24 21 22 23 22 23 25 25 26 28 28 28 29 29 28 27 28 29 30 31 32 33 33 33 33 33 33 33 34 35 35 34 33 33 34 35 37 38 39 40 41 43 44 45 48 48 48 48
10 7 6 5 4 4 5 6 7 8 9 9 10 10 10 8 7 8 11 14 16 15 12 11 13 13 9 5 6 6 6 6 12 24 26 20 18 17 18 21 22 23 24 26 27 28 29 29 28 28 28 28 28 30 31 31 32 33 34 34 33 32 32 32 33 34 35 35 34 32 32 33 34 35 37 39 40 40 42 44 45 47 47 47 48
10 8 7 6 5 5 5 6 7 8 9 9 10 10 9 8 8 9 12 13 15 16 15 13 11 10 8 6 5 4 4 8 15 16 13 15 20 21 22 22 22 23 24 26 27 28 29 29 29 28 28 30 30 31 32 32 32 32 33 32 32 33 33 33 34 34 34 34 35 35 34 33 33 33 35 37 40 41 42 44 45 46 47 48 49
11 9 8 7 6 6 6 7 7 8 9 9 10 10 10 9 9 10 12 12 13 15 17 15 12 11 12 12 11 10 10 11 9 7 13 19 18 17 19 20 21 23 24 26 26 27 28 29 30 29 30 32 32 32 32 33 32 31 31 32 33 34 35 36 36 35 35 35 36 38 37 37 36 34 34 34 36 39 42 43 45 47 48 48 49
12 10 9 8 7 6 7 7 8 9 9 10 11 11 10 10 9 10 12 13 13 14 16 16 13 12 12 14 17 19 19 16 8 7 13 15 12 14 18 19 21 25 27 26 25 28 31 31 31 33 34 33 32 33 34 34 34 34 35 36 36 36 36 36 36 36 36 35 35 36 37 38 39 38 37 36 35 36 40 43 45 46 47 50 51
12 12 10 9 7 7 8 8 9 9 10 11 12 11 10 10 10 11 13 13 13 14 15 14 13 14 14 15 17 18 20 19 17 13 9 10 16 18 18 17 20 25 27 27 29 31 32 32 32 33 34 34 35 37 38 38 37 38 39 38 36 36 35 36 38 38 39 39 38 37 36 36 38 41 41 41 40 39 38 40 44 47 47 49 52
13 12 11 10 8 8 9 9 9 10 11 12 11 10 10 11 12 13 13 13 12 12 14 15 14 15 15 16 16 17 18 19 21 19 12 10 13 14 16 18 19 23 26 28 33 34 34 34 35 36 37 40 41 40 38 38 38 38 38 37 36 38 40 40 41 41 40 40 39 38 37 37 38 41 43 44 44 43 40 39 41 45 48 49 51
15 14 12 11 10 10 10 10 10 10 11 11 10 10 11 12 12 12 12 12 12 13 14 15 14 15 15 15 16 16 15 13 14 16 13 10 11 12 16 18 16 21 26 29 33 34 36 37 37 38 39 39 39 38 37 38 38 39 39 40 41 42 43 43 43 42 41 41 42 42 42 42 41 41 41 42 43 44 42 41 40 42 46 49 51
16 15 13 12 11 10 10 10 10 10 11 11 11 11 11 11 11 11 12 12 13 13 14 15 14 15 15 15 17 16 14 13 14 16 12 8 10 11 16 22 22 24 27 29 33 33 34 37 36 36 37 36 37 36 37 37 37 39 41 42 44 44 44 44 44 43 43 44 44 45 45 44 43 41 40 41 44 45 44 43 43 41 43 46 51
17 16 14 13 12 11 11 11 11 11 10 10 9 9 10 11 12 13 14 13 13 13 14 15 14 15 15 15 16 17 18 19 20 20 17 15 14 9 14 23 22 25 31 29 30 32 32 34 35 37 37 36 36 36 36 38 39 40 41 43 44 46 46 45 46 45 46 47 46 46 46 45 45 44 43 43 45 49 48 46 46 44 43 43 47
20 18 16 14 12 12 11 12 11 11 10 10 10 11 12 14 15 14 14 14 13 13 14 15 15 16 17 17 18 19 20 22 21 22 21 21 18 11 17 23 17 22 34 32 28 31 32 33 33 34 35 34 35 35 34 35 39 40 40 42 43 44 46 46 47 47 45 45 45 46 46 47 47 48 47 46 46 49 51 50 48 47 45 43 43
22 19 17 15 13 13 13 13 13 12 12 12 12 13 14 14 14 14 14 14 13 14 15 16 16 17 18 19 21 21 22 23 22 23 22 22 20 15 15 20 18 20 28 33 31 26 27 31 32 30 31 33 34 34 34 35 39 41 40 41 42 43 45 46 46 45 44 44 46 47 47 48 49 49 48 47 44 44 48 49 48 47 47 45 42
21 19 17 16 15 15 15 15 15 14 13 13 12 12 13 13 13 13 14 13 13 14 15 16 17 19 20 21 22 23 24 24 23 24 23 23 23 22 17 13 15 16 17 24 28 25 27 31 32 32 30 32 35 34 36 38 39 40 39 37 38 38 38 39 40 41 43 45 46 47 48 48 49 48 47 46 45 44 47 50 49 48 47 47 45
22 21 20 19 17 16 16 16 15 14 13 12 12 12 12 13 13 13 14 13 13 15 16 17 19 20 21 22 23 25 25 25 24 24 25 25 25 27 24 15 12 12 12 15 17 21 28 28 28 32 30 30 33 32 32 37 39 39 39 37 36 35 35 35 37 39 41 42 43 44 45 46 48 49 48 47 47 46 48 51 52 52 52 52 51
24 23 21 19 18 17 17 16 15 14 13 12 12 13 13 13 13 14 14 13 14 16 17 19 20 22 22 23 24 25 25 24 24 24 24 26 26 26 26 23 18 12 10 14 14 16 25 28 27 30 31 29 30 32 33 35 36 36 38 40 40 40 40 40 42 44 45 46 46 45 45 45 46 48 49 49 49 50 50 53 56 56 56 56 56
25 23 21 20 19 18 17 16 15 14 13 13 13 12 12 12 13 13 14 14 15 17 18 20 21 22 23 24 24 26 26 24 24 24 24 25 26 27 26 27 25 19 12 12 16 22 29 33 31 30 31 31 32 35 36 35 37 40 41 44 46 46 46 45 46 49 52 54 54 53 52 50 49 48 48 48 48 49 49 51 54 55 55 56 56
26 24 22 21 20 18 17 16 15 14 14 13 13 12 12 12 13 13 14 14 16 18 19 20 22 22 23 24 24 25 25 24 24 23 24 24 25 26 27 28 29 29 24 16 15 26 33 35 38 38 36 38 39 39 41 41 41 42 42 42 44 47 49 50 51 50 50 52 54 57 57 56 54 53 51 49 49 50 49 49 52 53 52 53 55
27 25 23 21 20 19 17 16 15 15 15 14 13 12 12 12 13 14 14 15 17 19 21 21 21 22 23 24 24 24 23 23 23 22 23 24 24 25 26 27 29 30 30 23 15 24 35 38 43 47 45 42 39 34 33 37 37 35 36 37 39 43 46 46 47 46 46 47 48 51 54 54 53 53 53 53 52 52 52 53 54 56 55 53 53
27 25 23 22 20 18 17 17 17 16 15 14 13 12 13 14 15 15 16 17 19 20 21 22 22 22 23 24 24 24 23 23 24 24 24 23 24 25 24 26 28 27 25 23 17 17 28 36 42 48 46 40 38 34 31 36 40 38 37 38 38 40 43 44 46 49 51 52 51 53 55 55 54 53 53 54 54 55 56 56 57 58 57 55 53
27 25 23 22 20 19 19 18 18 17 16 15 14 14 15 16 16 16 17 18 20 21 21 22 22 21 22 24 24 24 24 25 26 25 26 25 24 25 24 24 26 24 21 22 21 16 20 30 37 42 44 39 40 43 40 38 41 38 36 37 38 39 43 46 50 52 52 52 52 53 55 59 61 58 55 54 54 55 57 58 59 59 57 55 53
26 24 23 22 21 20 19 19 18 17 16 15 14 15 16 17 17 17 18 18 19 21 21 21 21 21 22 24 25 24 22 22 23 23 23 24 24 25 25 24 24 25 25 24 24 21 20 25 30 34 39 38 39 44 43 39 37 34 34 39 41 44 47 49 50 50 48 48 49 49 50 53 57 59 57 56 54 53 53 54 55 55 54 52 51
26 24 23 22 21 20 19 19 18 17 16 15 15 16 16 17 17 17 18 19 20 20 20 20 20 19 20 21 21 20 19 18 19 19 18 19 22 25 26 24 23 26 28 25 24 25 24 25 27 29 35 36 37 41 41 38 37 36 38 43 45 46 47 46 46 46 47 47 48 50 52 52 53 54 54 54 54 52 50 51 51 49 49 49 49
25 24 23 22 21 20 20 19 18 16 16 15 15 16 17 17 17 18 18 19 20 20 19 20 19 18 18 18 18 16 16 17 18 18 19 19 21 23 24 24 23 23 25 25 25 27 27 28 29 31 33 34 34 37 37 35 37 38 39 42 43 42 43 44 45 46 46 47 47 49 51 54 55 55 54 54 56 54 50 50 51 50 49 47 46
26 24 23 22 21 20 19 18 17 16 16 16 16 17 17 17 17 17 18 19 19 19 18 18 19 20 19 17 18 17 17 20 22 21 21 21 21 23 25 25 24 23 24 25 26 28 29 31 31 31 32 32 31 32 31 31 33 33 32 35 38 37 37 39 41 42 42 42 45 46 47 48 50 52 53 55 56 56 54 53 54 54 52 48 46
26 25 23 22 21 19 18 17 16 16 16 16 16 16 16 16 16 16 18 18 18 18 18 17 18 20 20 21 22 23 24 26 28 26 23 22 22 23 24 25 25 25 26 26 26 27 29 31 31 31 31 30 29 29 28 29 31 31 30 30 31 31 32 33 35 37 38 38 41 44 47 48 49 50 51 52 52 52 51 52 55 56 53 48 47
26 24 23 22 20 18 17 16 16 16 16 15 15 15 14 15 15 16 16 16 17 18 18 19 21 22 24 25 26 27 29 30 32 30 27 25 25 24 23 23 24 26 27 27 26 27 29 30 31 31 31 30 29 28 29 28 28 29 29 27 28 30 31 33 35 37 37 37 39 44 47 47 46 47 48 50 51 51 52 53 52 52 50 46 45
25 23 22 20 19 18 17 16 16 16 15 14 13 13 13 13 14 15 15 16 16 18 18 20 22 24 26 28 28 29 30 30 29 29 28 28 28 29 27 24 23 25 27 27 27 26 26 28 28 29 28 27 27 27 27 26 25 28 31 29 29 32 31 32 37 40 37 35 38 43 44 42 39 39 41 43 45 46 46 47 44 42 43 42 43
25 23 21 19 18 17 17 16 16 14 13 12 11 11 12 13 13 13 14 15 16 18 20 22 22 24 25 26 26 26 26 26 26 28 29 30 31 32 32 30 28 27 26 27 27 26 25 24 26 27 22 21 25 26 27 29 30 32 32 28 28 29 27 25 31 38 36 31 33 36 35 32 32 34 36 36 36 35 33 32 30 29 32 36 41
24 22 20 19 17 17 16 15 14 12 11 10 9 11 13 13 13 14 14 16 18 20 21 21 21 22 22 23 23 23 24 26 28 29 29 30 32 33 34 34 33 33 32 31 30 28 26 25 27 27 22 22 28 29 29 31 30 29 30 28 27 25 19 14 15 26 34 33 30 31 34 34 28 27 29 28 27 28 28 29 30 29 30 34 39
23 21 19 18 17 16 15 14 13 12 11 10 9 12 13 13 13 15 16 18 19 20 20 20 21 22 21 22 23 23 25 28 30 30 30 32 34 35 35 35 35 36 36 37 36 34 32 29 28 28 26 28 31 29 29 30 29 29 31 29 26 22 19 13 9 19 35 37 30 28 35 41 34 26 29 30 29 30 30 32 34 34 34 36 39
23 20 19 17 16 15 14 13 12 11 10 10 10 12 13 13 13 14 17 19 20 20 21 20 21 21 21 24 25 25 28 29 30 31 33 35 36 36 36 35 36 37 37 39 41 41 40 36 32 30 30 31 32 30 29 29 29 31 29 26 26 25 23 21 17 25 38 38 32 27 31 41 39 28 29 34 32 30 30 32 34 33 32 35 39
22 20 18 17 16 14 14 13 12 11 11 10 10 11 12 12 12 14 16 19 19 20 20 19 19 21 23 25 26 28 29 30 31 33 34 35 35 34 35 34 36 39 38 39 41 44 45 43 40 38 36 35 36 36 34 33 33 33 30 28 30 28 27 30 33 38 42 39 34 25 23 34 36 25 27 34 30 28 31 32 33 31 29 31 36
22 20 18 17 16 15 14 13 12 12 11 9 9 11 11 11 12 14 16 18 18 19 18 18 20 22 24 27 28 30 32 33 33 32 32 34 34 34 35 34 36 38 38 38 40 42 44 44 44 44 42 39 40 40 40 41 42 42 42 41 40 36 34 35 35 37 38 36 34 25 18 27 31 22 25 32 29 30 33 32 30 30 29 31 33
21 19 18 17 16 15 14 13 13 11 10 9 9 10 11 11 12 14 16 17 17 18 18 19 21 23 25 28 30 32 33 33 32 30 30 33 35 35 36 36 37 38 38 38 38 39 41 43 44 45 44 44 44 44 45 46 45 45 44 42 41 36 29 24 21 24 30 31 32 28 21 24 28 24 24 30 29 31 34 30 28 30 30 32 32
22 21 19 17 15 14 13 13 12 10 9 9 8 9 9 10 11 14 16 17 18 19 20 21 22 24 26 28 29 31 31 31 31 31 31 33 34 34 35 37 39 38 37 38 38 39 42 44 46 47 48 49 49 47 48 47 47 47 41 32 32 30 21 15 12 16 23 27 30 30 24 22 25 22 21 28 30 31 31 28 26 27 28 30 31
24 22 19 17 15 13 12 11 10 10 10 7 6 7 9 10 11 13 15 17 19 20 21 22 23 24 25 27 28 29 30 30 31 32 32 32 34 34 33 34 34 33 33 34 36 37 39 42 45 47 48 50 51 49 49 48 48 49 42 32 31 29 20 14 11 13 20 28 31 29 22 22 27 26 22 22 23 24 26 24 23 25 26 28 29
24 21 18 17 14 12 10 9 9 9 9 6 3 6 9 9 11 13 15 17 19 20 22 22 21 22 24 25 26 26 28 30 31 31 32 33 35 35 33 31 30 30 32 33 33 35 38 39 40 42 43 45 47 47 48 46 44 45 44 41 39 33 23 17 15 11 12 19 26 25 21 23 28 28 21 12 8 13 17 17 19 24 28 30 29
Wind_Direction
84 59 44 35 31 23 15 12 7 4 1 1 360 358 356 355 355 353 350 348 347 349 347 344 344 339 335 333 329 326 326 326 324 322 320 319 318 317 316 313 310 308 306 305 303 300 298 296 294 291 288 286 283 280 277 275 273 270 268 267 265 264 265 266 266 267 266 264 262 261 261 260 257 254 251 249 249 245 242 239 231 227 228 228 227
118 83 53 37 32 21 13 10 5 360 359 360 359 355 353 354 356 351 346 343 344 345 341 339 339 338 334 327 322 322 322 322 320 318 318 317 316 316 316 314 312 310 307 305 302 299 298 297 296 295 292 289 286 284 281 278 275 272 269 267 266 263 263 263 264 266 266 264 262 260 259 258 256 254 253 251 250 247 245 242 236 229 227 227 228
152 110 66 48 34 21 14 8 2 359 359 358 356 353 352 354 354 344 339 338 338 339 338 334 332 330 325 319 316 316 316 317 315 314 314 313 312 311 311 311 310 309 307 305 301 299 298 298 298 297 295 293 290 287 284 281 278 275 272 269 266 264 262 261 261 262 264 264 262 259 257 256 255 253 252 252 250 249 247 244 239 234 229 227 228
159 123 88 64 40 23 20 9 358 357 358 355 354 353 352 351 348 338 335 334 331 336 337 328 325 324 318 315 314 312 314 315 312 310 309 307 306 305 305 305 304 305 304 302 300 299 299 299 299 298 297 296 295 292 289 285 282 278 275 272 268 266 264 261 259 259 260 263 263 261 258 256 255 252 251 251 251 250 249 245 242 237 232 229 228
164 127 103 70 44 26 20 9 352 353 356 354 353 352 349 347 344 337 336 335 333 334 328 321 322 321 316 315 315 313 314 313 310 309 308 305 304 302 302 301 301 302 302 301 299 299 299 299 300 299 299 299 298 296 293 290 286 282 279 276 272 268 265 263 260 258 257 259 261 261 260 257 255 253 251 250 251 250 249 247 244 240 236 232 229
178 136 110 66 43 23 11 358 343 349 354 353 352 350 347 345 341 334 335 338 334 326 319 318 320 318 315 314 311 310 311 310 310 310 308 306 305 303 301 301 301 300 300 300 297 296 295 296 299 299 299 299 299 298 296 294 291 287 283 279 276 273 269 265 263 260 257 256 257 258 260 259 256 254 251 250 250 249 249 248 246 243 239 236 230
182 160 116 60 34 15 1 339 336 348 352 351 349 348 346 342 337 332 332 332 326 319 317 319 319 315 312 311 309 310 312 312 312 311 309 307 305 303 302 302 302 300 298 297 294 294 297 302 305 303 299 299 299 298 297 296 294 291 288 284 279 276 273 269 265 262 259 256 256 255 257 259 258 255 252 251 250 249 248 248 248 245 243 241 233
181 175 157 62 25 5 347 328 338 348 349 349 349 347 343 336 333 332 325 319 317 316 318 318 313 310 310 311 312 313 314 314 313 310 308 305 303 304 304 304 303 301 299 296 297 300 303 304 304 302 300 300 300 298 296 295 294 293 291 289 285 280 276 273 270 265 261 259 257 255 254 257 258 257 254 251 249 248 247 247 248 246 245 244 236
185 179 176 174 332 334 332 331 342 348 347 348 347 345 341 333 331 332 316 309 310 312 316 317 311 308 310 312 315 316 315 314 312 309 306 302 302 305 306 306 303 301 299 298 300 302 303 301 300 301 300 302 302 300 298 297 295 293 291 290 289 286 282 278 274 270 265 262 260 258 255 254 256 258 257 254 251 249 247 246 246 246 246 243 237
192 190 189 232 299 326 333 340 343 346 345 344 344 342 340 334 324 316 306 303 305 309 313 315 311 308 309 312 316 317 315 313 310 306 303 300 302 304 305 303 299 298 301 301 302 301 302 302 302 302 302 302 301 299 298 298 297 295 292 290 289 288 286 283 280 275 271 266 263 260 257 255 254 255 257 257 256 253 249 246 245 246 245 242 237
198 202 212 261 314 330 336 341 341 343 341 338 340 337 333 321 301 299 304 306 306 310 313 313 309 306 307 312 317 317 316 314 308 302 300 300 301 299 296 294 293 294 297 299 300 299 299 301 303 302 301 300 300 299 299 298 297 295 294 292 290 289 287 285 283 281 277 272 267 264 261 258 255 253 253 255 257 256 251 247 246 246 245 243 239
206 217 233 264 309 326 335 338 338 338 335 334 334 327 314 299 293 299 311 316 317 317 315 312 305 303 307 313 316 318 319 315 307 300 299 300 298 293 288 287 289 291 292 296 295 293 295 298 299 298 297 299 301 302 301 299 299 297 295 294 293 292 289 286 284 283 281 278 274 269 265 261 258 255 253 253 255 257 254 250 247 246 245 244 241
215 225 240 264 299 322 334 335 334 332 331 328 320 309 300 298 303 309 315 316 316 317 316 309 302 305 314 316 315 317 320 316 306 298 300 302 298 290 286 287 289 291 294 295 289 286 293 298 297 294 296 300 302 302 301 300 300 298 297 296 295 295 293 290 287 286 284 282 280 275 270 265 261 258 256 254 254 256 257 254 251 248 245 244 242
219 226 238 259 283 308 325 327 326 326 322 316 307 304 302 305 307 308 309 304 301 310 320 314 303 311 319 315 315 319 322 321 314 304 308 307 301 293 288 287 287 289 291 290 285 285 294 299 294 290 294 298 299 300 300 298 297 296 295 296 296 294 293 292 293 294 292 288 285 281 276 271 266 261 258 256 255 255 256 254 254 251 246 243 242
219 225 233 251 270 290 312 317 318 318 313 307 302 297 295 295 295 293 297 294 292 303 318 312 304 314 318 307 314 323 324 334 339 313 306 301 299 296 291 287 287 289 287 285 285 286 292 294 289 289 293 295 296 297 297 297 297 297 297 298 297 295 294 294 295 295 294 291 287 284 280 276 272 267 261 258 256 255 254 252 253 253 248 242 241
220 225 234 249 266 284 304 309 311 310 302 295 287 282 282 286 286 277 280 284 288 295 303 303 303 310 316 304 306 306 303 339 329 309 303 302 302 300 295 291 289 291 288 284 285 287 291 292 289 290 292 291 291 292 292 293 294 295 296 296 296 295 294 295 295 293 292 290 288 287 284 280 276 272 267 262 258 255 254 252 252 253 251 244 241
220 227 238 250 266 282 297 300 301 297 288 280 272 272 273 272 270 266 270 274 280 289 295 305 307 294 286 287 300 299 291 330 325 307 300 303 298 296 295 292 290 291 290 287 287 289 292 291 289 289 290 290 291 292 292 293 293 293 293 294 295 294 293 293 292 291 290 290 289 289 289 286 281 277 273 267 261 257 255 254 252 251 252 248 241
217 227 237 246 260 274 284 289 290 284 275 266 259 259 262 263 261 262 266 267 273 284 291 302 308 289 279 273 266 269 287 314 323 302 303 301 292 296 303 300 297 296 293 288 287 290 291 290 288 287 289 291 292 292 293 293 292 291 290 291 292 292 292 292 290 289 287 287 287 286 287 287 284 281 279 274 267 261 256 254 253 249 249 249 242
217 225 232 239 250 263 274 279 279 274 264 256 253 254 256 259 256 254 259 263 269 278 285 296 302 291 286 280 274 277 286 296 296 296 310 305 292 298 303 301 300 300 296 288 287 294 293 288 285 286 289 290 290 291 292 292 290 288 286 288 289 288 288 289 289 288 286 286 285 283 284 284 283 282 281 278 274 268 261 256 254 251 248 246 242
217 222 227 234 241 251 263 268 268 266 259 253 253 254 254 254 252 250 257 264 270 275 281 289 293 293 293 289 286 288 290 292 292 294 303 304 301 301 300 299 299 300 297 291 292 296 294 288 285 286 287 287 289 290 290 290 288 287 287 287 288 286 284 285 285 285 284 283 282 279 279 280 281 282 281 278 275 273 270 261 255 252 249 246 242
214 219 223 228 234 243 252 257 258 257 254 253 254 253 252 253 254 256 261 265 266 268 274 279 283 287 292 293 294 295 295 293 293 292 286 284 296 303 307 308 301 295 292 291 293 294 291 288 285 284 285 287 290 290 289 289 288 288 288 287 287 287 286 284 283 283 281 281 280 278 277 277 279 280 279 277 274 274 275 271 261 254 250 247 243
211 217 220 223 228 237 243 248 252 251 251 253 255 254 255 258 261 265 266 265 263 262 266 272 274 276 280 286 291 292 294 293 287 290 290 281 285 295 303 307 302 295 293 291 290 290 289 287 283 282 284 286 287 286 286 287 287 287 286 286 287 287 287 286 284 282 280 279 278 277 277 276 276 275 275 276 274 273 273 273 269 261 253 248 244
211 213 216 220 225 232 239 242 246 248 249 252 255 258 260 261 262 261 260 259 261 262 261 262 265 269 269 270 276 279 280 280 279 287 291 282 286 292 295 298 295 292 293 292 290 288 288 285 281 281 284 284 282 282 283 283 283 284 286 288 288 286 285 285 284 283 281 280 278 277 276 274 273 270 270 272 273 272 271 271 271 269 262 252 246
205 209 214 219 223 229 233 237 242 245 250 253 255 257 255 253 253 254 255 255 255 255 255 258 259 263 264 262 268 272 271 272 277 283 283 282 288 289 291 296 296 292 293 294 290 287 284 281 279 281 282 282 280 279 277 277 278 281 284 286 286 286 285 283 283 283 282 281 280 278 276 273 271 269 268 269 270 271 271 271 270 270 269 262 252
200 206 212 218 222 227 230 237 242 243 245 245 245 245 244 247 250 252 253 251 251 251 252 257 256 257 260 261 262 265 265 266 271 277 280 283 285 283 287 291 291 293 295 295 291 288 284 280 277 277 278 282 283 280 276 276 278 280 282 283 284 284 285 284 283 283 282 281 281 279 277 274 272 269 268 267 267 268 269 270 269 268 268 266 260
202 205 209 214 219 226 232 237 239 238 239 240 242 244 244 247 250 251 252 251 251 252 253 255 257 258 260 260 261 261 261 262 265 270 274 277 277 277 287 290 286 288 292 292 290 287 283 281 278 274 276 280 282 281 281 282 283 283 282 281 280 281 284 285 283 281 280 280 281 280 278 276 274 270 268 265 263 264 267 270 269 267 267 266 263
201 201 204 211 217 225 231 234 237 239 240 243 244 243 243 245 248 250 252 253 251 252 253 255 258 261 260 260 261 261 261 262 263 265 268 269 272 274 280 291 291 288 288 289 287 281 279 281 280 277 278 280 278 278 282 285 287 287 287 284 280 279 282 284 284 283 282 280 278 278 277 276 274 271 267 264 262 262 265 269 269 267 266 264 261
196 198 202 209 216 223 229 233 237 240 242 243 240 240 240 241 244 248 252 253 252 252 254 257 259 261 262 261 261 261 263 265 265 266 268 268 270 273 276 278 284 291 293 291 288 281 280 281 281 282 281 280 280 279 282 286 287 287 289 291 288 283 282 283 286 289 289 286 282 280 279 276 274 271 267 265 264 263 263 266 268 267 264 260 258
196 199 204 210 217 223 229 234 239 242 242 240 238 239 240 241 244 249 252 252 250 252 255 258 261 262 263 262 261 262 265 266 266 267 268 270 270 271 272 271 272 279 288 290 288 287 288 285 281 284 284 280 281 284 285 287 287 288 289 290 290 289 286 284 284 285 287 288 286 283 282 280 277 273 269 265 264 263 262 263 266 268 265 261 258
199 203 207 212 219 225 230 234 237 239 240 238 239 240 240 243 248 250 253 252 252 254 257 260 263 263 264 263 263 264 266 266 267 268 269 270 271 271 272 272 271 271 273 283 283 283 289 289 283 282 285 284 284 287 286 285 288 290 287 284 285 286 285 285 284 284 285 285 283 279 277 278 279 277 272 268 266 264 262 261 263 265 265 263 260
202 205 209 214 220 225 228 231 233 234 237 238 238 240 241 246 250 251 253 253 254 257 259 261 262 262 263 264 265 265 268 270 269 269 269 268 270 272 274 272 270 269 267 269 275 277 282 288 288 286 287 288 288 287 286 286 286 287 283 278 280 283 284 285 286 286 285 283 281 277 274 273 275 275 273 270 268 266 263 262 263 264 265 264 261
203 206 211 216 219 222 224 226 228 230 234 237 238 241 245 247 248 250 252 252 252 256 259 260 260 260 262 265 267 268 270 271 270 269 267 268 270 272 273 273 269 265 264 262 264 274 277 282 287 289 290 292 292 287 288 290 290 288 283 281 283 285 285 285 285 284 282 280 280 278 275 274 272 272 270 267 266 265 264 263 263 264 263 262 262
203 207 212 216 217 218 220 223 227 230 234 235 236 240 242 244 245 247 249 250 251 254 257 259 260 261 264 266 268 269 270 270 270 271 271 270 271 271 271 273 271 268 267 268 270 276 279 281 285 289 291 295 295 292 293 293 292 291 287 284 286 286 285 284 284 285 283 281 280 279 277 275 272 271 270 267 263 262 262 260 260 261 260 260 260
204 208 212 214 215 216 219 223 227 230 233 233 235 238 239 242 245 247 249 250 252 255 257 260 262 263 265 267 269 270 271 271 271 272 273 272 270 271 272 273 274 274 274 279 284 285 287 286 286 288 291 295 296 295 295 292 289 289 288 286 287 287 286 286 285 284 282 280 277 275 274 273 270 269 270 267 263 262 262 259 257 256 256 257 257
204 209 212 213 214 217 221 224 227 229 231 233 235 237 239 242 245 247 250 251 254 257 259 261 264 265 266 267 269 271 272 271 271 271 271 270 269 270 273 273 275 277 278 282 285 285 287 288 287 290 293 294 294 293 294 292 290 291 293 291 290 288 286 285 283 281 278 276 276 274 272 270 268 266 267 266 263 262 263 260 256 253 252 254 254
203 207 210 213 216 219 221 224 226 228 230 232 235 238 239 242 246 249 252 254 256 258 260 263 264 265 265 266 268 270 270 268 269 270 267 265 266 268 270 271 273 276 277 278 278 281 285 287 287 288 288 290 291 290 291 293 293 294 294 291 288 286 284 282 280 278 276 275 274 273 271 270 269 267 266 266 263 262 264 263 259 255 252 252 250
202 206 209 212 216 220 222 224 226 228 231 234 237 239 242 245 249 253 255 256 258 259 260 262 264 263 261 261 264 265 264 265 266 266 262 259 261 262 263 264 266 269 272 272 271 274 278 280 282 281 279 281 285 286 288 292 294 292 289 286 285 283 281 279 278 277 276 275 274 274 273 270 268 267 266 266 264 262 263 263 262 260 255 251 248
201 204 209 212 216 219 221 224 227 230 232 234 237 241 245 248 250 253 256 258 259 260 261 261 262 262 257 256 262 264 262 263 264 262 259 257 258 258 257 258 258 259 264 267 268 269 269 271 274 276 275 276 279 281 284 285 285 285 285 286 283 281 279 278 277 278 277 276 275 274 273 270 267 265 264 264 264 263 263 263 262 258 253 249 247
200 203 207 210 215 217 220 224 227 230 231 234 238 243 245 247 249 252 254 256 258 260 262 261 260 260 260 262 266 268 267 267 268 266 261 258 257 255 253 253 252 251 253 256 260 265 268 269 271 273 274 275 276 279 282 283 281 280 282 284 283 284 284 280 279 281 281 279 278 275 272 269 265 262 261 262 263 263 264 264 260 254 249 248 247
199 203 206 208 211 214 219 223 226 230 233 236 239 242 243 245 246 248 250 252 256 260 260 259 260 263 268 270 271 272 273 271 269 267 262 259 258 255 251 247 245 245 247 248 249 256 262 265 268 270 271 271 273 276 277 280 280 277 277 279 281 285 287 284 282 284 284 282 281 279 274 267 262 260 261 262 263 263 263 262 256 249 247 248 248
197 201 204 207 209 213 218 222 226 229 232 236 239 242 243 243 242 244 248 253 259 261 259 259 263 268 272 275 274 274 274 271 268 268 268 267 268 268 266 261 252 246 244 245 247 251 256 259 263 266 266 265 267 269 269 269 272 275 276 276 278 281 283 283 284 285 285 284 283 282 275 263 256 258 260 260 262 261 258 256 252 249 249 249 249
194 198 202 205 209 213 217 221 224 226 230 236 241 240 238 239 243 248 254 260 261 260 261 263 266 269 272 274 273 272 272 272 273 275 275 275 275 276 277 275 270 263 257 254 252 250 250 253 258 260 262 262 261 261 265 268 270 272 273 274 277 281 283 283 285 287 289 290 293 295 291 277 262 258 258 257 256 254 253 253 254 256 257 255 251
192 195 199 203 207 213 216 217 219 223 232 240 240 234 231 232 242 251 256 260 261 261 263 265 268 272 273 272 272 272 272 273 275 276 276 276 277 277 278 278 274 271 270 269 266 260 254 253 256 256 256 261 261 257 260 267 268 267 271 275 276 276 277 278 285 292 294 298 303 306 307 302 286 267 265 265 261 263 268 270 270 269 268 265 257
189 192 196 202 205 209 210 211 217 225 233 240 237 233 234 235 241 250 258 261 262 264 266 269 272 275 275 275 275 275 274 273 273 272 272 274 278 279 279 279 277 273 271 272 273 271 266 263 260 255 252 257 259 256 256 263 269 272 275 276 275 274 277 279 280 286 290 297 306 305 299 297 293 279 275 278 279 282 284 281 277 275 273 270 264
186 189 193 198 199 200 204 211 220 227 234 240 236 236 241 244 245 254 262 265 266 269 272 274 274 274 277 279 278 276 275 275 274 273 273 275 277 276 273 273 274 272 269 269 271 272 271 270 267 261 257 259 261 260 260 265 272 276 276 275 275 276 275 274 274 278 285 293 300 299 291 289 289 284 281 284 286 284 284 282 279 277 276 272 266
183 186 188 191 191 195 205 213 221 231 239 243 241 242 245 249 255 262 267 270 273 275 276 276 275 276 280 281 278 276 277 277 275 275 276 278 277 276 274 272 270 269 265 261 262 267 269 269 270 270 268 266 266 266 267 269 270 271 272 271 271 269 267 269 272 275 279 284 285 281 277 279 280 277 277 282 283 280 280 282 277 273 278 278 267
182 184 185 187 189 195 203 211 220 232 241 243 244 248 252 257 264 269 273 277 280 280 279 279 279 281 284 284 281 279 280 280 279 278 280 284 285 285 284 281 277 275 270 261 258 261 263 262 264 268 269 268 267 268 269 269 268 267 267 268 268 268 269 271 271 270 272 276 276 270 264 271 272 269 274 279 281 281 280 278 274 272 277 281 270
179 181 183 184 188 194 200 210 220 230 239 244 245 249 257 264 269 274 279 283 285 284 283 283 285 287 288 286 284 283 284 286 287 288 291 294 295 293 291 289 287 284 279 273 268 267 266 265 264 265 266 266 266 267 267 266 264 264 264 265 267 268 268 268 267 264 267 272 274 270 264 270 272 268 273 280 282 280 276 271 274 280 282 281 271
176 179 181 182 186 192 199 208 218 229 241 242 240 247 260 267 272 279 284 287 288 287 287 288 290 292 292 291 289 290 293 295 296 298 301 301 300 297 293 291 288 283 279 279 279 276 274 272 269 268 267 267 266 267 267 266 265 265 262 260 261 263 263 264 262 264 268 270 273 273 271 274 275 270 275 283 279 272 271 272 278 287 290 284 270
176 177 177 179 183 190 199 207 215 232 244 240 231 251 265 269 275 283 288 290 289 289 290 292 294 295 296 297 297 297 297 299 301 304 306 306 302 297 293 290 286 283 283 284 284 280 277 275 272 269 269 268 267 267 267 267 267 266 264 262 261 259 259 261 263 270 272 268 267 271 272 274 275 274 276 283 277 266 266 272 278 287 297 296 280
171 172 173 176 181 189 200 210 216 229 243 242 229 255 268 274 280 287 292 292 290 291 293 294 297 299 299 299 299 299 299 301 304 306 308 308 305 301 298 294 289 289 293 293 289 284 280 275 269 266 265 264 264 264 263 264 264 265 267 270 269 263 257 259 262 265 272 269 264 263 264 264 264 262 259 263 276 267 259 266 284 294 300 304 297